Printer-friendly version
Follow the MPC on Twitter Follow the MPC on Facebook The MPC blog
Minor Planet Center

MPEC 2010-F26 : 2010 FO

The following Minor Planet Electronic Circular may be linked-to from your own Web pages, but must not otherwise be redistributed electronically.

A form allowing access to any MPEC is at the bottom of this page.


Read MPEC 2010-F25 Read MPEC 2010-F27


M.P.E.C. 2010-F26                                Issued 2010 Mar. 18, 17:14 UT

     The Minor Planet Electronic Circulars contain information on unusual
         minor planets and routine data on comets.  They are published
   on behalf of Commission 20 of the International Astronomical Union by the
          Minor Planet Center, Smithsonian Astrophysical Observatory,
                          Cambridge, MA 02138, U.S.A.

             Prepared using the Tamkin Foundation Computer Network

                              MPC@CFA.HARVARD.EDU
       URL http://www.minorplanetcenter.org/iau/mpc.html  ISSN 1523-6714

                                    2010 FO

Observations:
     K10F00O* C2010 03 17.33127 10 02 07.04 +14 37 55.9          20.7 V EF026G96
     K10F00O  C2010 03 17.33767 10 02 08.73 +14 37 51.8          20.2 V EF026G96
     K10F00O  C2010 03 17.34423 10 02 10.50 +14 37 46.9          20.5 V EF026G96
     K10F00O  C2010 03 17.35068 10 02 12.33 +14 37 41.6          20.5 V EF026G96
     K10F00O  C2010 03 17.39620 10 02 24.95 +14 37 06.4                 EF026G96
     K10F00O  C2010 03 17.39714 10 02 25.26 +14 37 06.1          19.6 V EF026G96
     K10F00O  C2010 03 17.41899 10 02 31.46 +14 36 46.2          19.8 R EF026H01
     K10F00O  C2010 03 17.42337 10 02 32.72 +14 36 42.7          19.5 R EF026H01
     K10F00O  C2010 03 17.43168 10 02 35.12 +14 36 36.4          19.5 R EF026H01
     K10F00O  C2010 03 17.43775 10 02 36.90 +14 36 31.6          19.3 R EF026H01
     K10F00O  C2010 03 17.44305 10 02 38.45 +14 36 27.4          19.5 R EF026H01
     K10F00O KC2010 03 17.88932 10 04 58.64 +14 31 22.8          20.2 V EF026A55
     K10F00O KC2010 03 17.89756 10 05 00.92 +14 31 17.4          20.1 V EF026A55
     K10F00O KC2010 03 17.90644 10 05 03.34 +14 31 11.4          20.2 V EF026A55
     K10F00O  C2010 03 17.92986 10 05 09.80 +14 30 49.5          19.7 R EF026473
     K10F00O  C2010 03 17.93263 10 05 10.57 +14 30 47.5          19.7 R EF026473
     K10F00O KC2010 03 17.94915 10 05 15.58 +14 30 36.4          19.9 R EF026B04
     K10F00O KC2010 03 17.95309 10 05 16.66 +14 30 33.5          20.1 R EF026B04
     K10F00O KC2010 03 17.95702 10 05 17.76 +14 30 30.7          20.3 R EF026B04
     K10F00O  C2010 03 18.17930 10 06 28.55 +14 28 12.5          20.4 V EF026291
     K10F00O  C2010 03 18.18361 10 06 29.72 +14 28 09.8          20.5 V EF026291
     K10F00O  C2010 03 18.18743 10 06 30.75 +14 28 07.3          20.5 V EF026291
     K10F00O  C2010 03 18.19947 10 06 33.94 +14 27 58.3          20.2 V EF026G96
     K10F00O  C2010 03 18.19998 10 06 34.12 +14 27 58.0          20.4 V EF026G96
     K10F00O  C2010 03 18.20047 10 06 34.23 +14 27 57.7          20.3 V EF026G96
     K10F00O  C2010 03 18.20096 10 06 34.34 +14 27 57.1          20.0 V EF026G96
     K10F00O  C2010 03 18.20108 10 06 34.06 +14 27 55.2          19.8 R EF026H01
     K10F00O  C2010 03 18.20936 10 06 36.31 +14 27 49.5          19.7 R EF026H01
     K10F00O KC2010 03 18.21347 10 06 36.42 +14 27 39.9          20.2 R EF026H36
     K10F00O KC2010 03 18.21538 10 06 39.16 +14 27 38.5          18.6 C EF026G58
     K10F00O KC2010 03 18.21809 10 06 37.70 +14 27 36.4          19.9 R EF026H36
     K10F00O KC2010 03 18.21965 10 06 40.35 +14 27 35.7          19.3 C EF026G58
     K10F00O  C2010 03 18.22171 10 06 39.67 +14 27 40.9          19.7 R EF026H01
     K10F00O KC2010 03 18.22391 10 06 41.53 +14 27 32.6          19.6 C EF026G58
     K10F00O  C2010 03 18.22413510 06 38.69 +14 27 30.3          19.9 V EF026H21
     K10F00O KC2010 03 18.22733 10 06 40.24 +14 27 29.5          20.3 R EF026H36
     K10F00O  C2010 03 18.23086 10 06 42.16 +14 27 34.3          19.3 R EF026H01
     K10F00O  C2010 03 18.23178910 06 40.79 +14 27 24.5          20.0 V EF026H21
     K10F00O  C2010 03 18.35506 10 07 16.53 +14 26 02.8          20.1 R EF026854
     K10F00O  C2010 03 18.36466 10 07 19.18 +14 25 55.8          20.5 R EF026854
     K10F00O  C2010 03 18.37573 10 07 22.21 +14 25 48.2          20.4 R EF026926
     K10F00O  C2010 03 18.37913 10 07 23.19 +14 25 44.7          20.9 R EF026926
     K10F00O  C2010 03 18.38253 10 07 24.14 +14 25 41.6          20.4 R EF026926
     K10F00O  C2010 03 18.38386 10 07 24.54 +14 25 39.5          20.2 R EF026854

Observer details:
291 LPL/Spacewatch II.  Observer T. H. Bressi.  1.8-m f/2.7 reflector + CCD.
473 Remanzacco.  Observers L. Donato, V. Gonano, E. Guido, G. Sostero.  0.45-m
    f/4.4 Newtonian reflector + CCD.
854 Sabino Canyon Observatory, Tucson.  Observer J. E. McGaha.  0.36-m f/10.0
    Schmidt-Cassegrain + CCD.
926 Tenagra II Observatory.  Observers P. R. Holvorcem, M. Schwartz.  Measurer
    P. R. Holvorcem.  0.81-m f/7 Ritchey-Chretien + CCD.
A55 Osservatorio Astronomico Vallemare di Borbona.  Observer V. S. Casulli.
    0.4-m f/4.5 Newtonian reflector + CCD.
B04 OAVdA, Saint-Barthelemy.  Observer A. Carbognani.  0.81-m f/7.9 reflector
    + CCD.
G58 Chabot Space and Science Center, Oakland.  Observers G. McKeegan, C. Jung.
    0.9-m f/8 Cassegrain + CCD + f/6.3 focal reducer.
G96 Mt. Lemmon Survey.  Observer R. E. Hill.  Measurers J. D. Ahern,
    E. C. Beshore, A. Boattini, G. J. Garradd, A. R. Gibbs, A. D. Grauer,
    R. E. Hill, R. A. Kowalski, S. M. Larson, R. H. McNaught.  1.5-m reflector
    + CCD.
H01 Magdalena Ridge Observatory, Socorro.  Observers W. H. Ryan, E. V. Ryan.
    Measurer W. H. Ryan.  2.4-m f/8.9 reflector + CCD.
H21 Astronomical Research Observatory, Westfield.  Observer R. Holmes.
    Measurer S. Foglia.
H36 Sandlot Observatory, Scranton.  Observer G. Hug.  0.56-m reflector + CCD.

Orbital elements:
2010 FO                                                  Earth MOID = 0.0862 AU
Epoch 2010 Jan. 4.0 TT = JDT 2455200.5                  MPC
M 327.92240              (2000.0)            P               Q
n   0.47888048     Peri.    4.48431     -0.98016914     -0.19807000
a   1.6180228      Node   164.08766     +0.18111634     -0.90784326
e   0.3329659      Incl.    1.26660     +0.08040725     -0.36957934
P   2.06           H   24.0           G   0.15           U   7
Residuals in seconds of arc
100317 G96  0.9+  0.1-    100317 473  0.1-  0.2-    100318 H36  0.4+  0.1+
100317 G96  0.0   0.5+    100317 B04  0.1+  0.2-    100318 G58  0.0   0.0
100317 G96  0.4-  0.5+    100317 B04  0.0   0.2-    100318 H01  0.1+  0.1+
100317 G96  0.4+  0.0     100317 B04  0.1+  0.1-    100318 G58  0.1+  0.2-
100317 G96  0.8-  0.6-    100318 291  0.1+  0.1-    100318 H21  0.1-  0.0
100317 G96  0.1-  0.2-    100318 291  0.0   0.0     100318 H36  0.5+  0.0
100317 H01  0.2+  0.1+    100318 291  0.2-  0.1+    100318 H01  0.2+  0.0
100317 H01  0.1+  0.0     100318 G96  0.3-  0.1-    100318 H21  0.2-  0.1-
100317 H01  0.1-  0.3+    100318 G96  0.3+  0.1-    100318 854  1.0+  0.0
100317 H01  0.0   0.2+    100318 G96  0.1-  0.0     100318 854  0.4+  0.7+
100317 H01  0.1-  0.2+    100318 G96  0.4-  0.3-    100318 926  0.4-  0.8+
100317 A55  0.2-  0.6-    100318 H01  0.0   0.1-    100318 926  0.1-  0.1+
100317 A55  0.1+  0.2-    100318 H01  0.0   0.0     100318 926  0.3-  0.2-
100317 A55  0.1-  0.0     100318 H36  0.1+  0.3+    100318 854  0.4-  0.0
100317 473  0.2-  0.2-    100318 G58  0.3-  0.1-

Ephemeris:
2010 FO                  a,e,i = 1.62, 0.33, 1                   q = 1.0793
Date    TT    R. A. (2000) Decl.     Delta      r     Elong.  Phase     V
2010 03 15    09 50.64   +15 02.0    0.0967   1.080   150.5    27.0    20.3
2010 03 25    10 41.69   +12 48.0    0.0993   1.086   152.7    24.9    20.3
2010 04 04    11 31.23   +09 28.0    0.110    1.101   155.0    22.5    20.5
2010 04 14    12 12.42   +05 49.6    0.131    1.123   155.9    21.4    20.9
2010 04 24    12 44.47   +02 24.0    0.160    1.152   154.9    21.8    21.4
2010 05 04    13 09.49   -00 38.2    0.198    1.187   152.3    23.3    22.0

Sonia Keys                   (C) Copyright 2010 MPC           M.P.E.C. 2010-F26

Read MPEC 2010-F25 Read MPEC 2010-F27


MPEC number:

Enter an MPEC number in one of the following forms:

  • 1997-B01 (the full form)
  • J97B01 (the packed version of the full form)
  • B01 (the abbreviated form)

Valid HTML 4.01!